Time,TemperatureF,DewpointF,PressureIn,WindDirection,WindDirectionDegrees,WindSpeedMPH,WindSpeedGustMPH,Humidity,HourlyPrecipIn,Conditions,Clouds,dailyrainin,SoftwareType,DateUTC
2013-08-12 00:03:00,48.6,-99.9,29.88,SSE,161,2.0,4.0,1,0.00,,,0.00,WeatherCatV1.21B27,2013-08-12 07:03:00,
2013-08-12 00:08:00,48.5,-99.9,29.88,SSE,161,0.0,1.0,1,0.00,,,0.00,WeatherCatV1.21B27,2013-08-12 07:08:00,
2013-08-12 00:13:00,48.5,-99.9,29.88,SSE,150,0.0,0.0,1,0.00,,,0.00,WeatherCatV1.21B27,2013-08-12 07:13:00,
2013-08-12 00:18:00,48.5,-99.9,29.88,SSE,157,0.0,0.0,1,0.00,,,0.00,WeatherCatV1.21B27,2013-08-12 07:18:00,
2013-08-12 00:23:00,48.5,-99.9,29.88,South,184,0.0,0.0,1,0.00,,,0.00,WeatherCatV1.21B27,2013-08-12 07:23:00,
2013-08-12 00:33:00,48.5,-99.9,29.88,ESE,119,0.0,0.0,1,0.00,,,0.00,WeatherCatV1.21B27,2013-08-12 07:33:00,
2013-08-12 00:38:00,48.5,-99.9,29.88,SSE,163,0.0,0.0,1,0.00,,,0.00,WeatherCatV1.21B27,2013-08-12 07:38:00,
2013-08-12 00:43:00,48.4,-99.9,29.88,ESE,115,0.0,4.0,1,0.00,,,0.00,WeatherCatV1.21B27,2013-08-12 07:43:00,
2013-08-12 00:48:00,48.4,-99.9,29.88,SE,129,0.0,3.0,1,0.00,,,0.00,WeatherCatV1.21B27,2013-08-12 07:48:00,
2013-08-12 00:53:00,48.3,-99.9,29.88,SE,130,0.0,0.0,1,0.00,,,0.00,WeatherCatV1.21B27,2013-08-12 07:53:00,
2013-08-12 00:58:00,48.3,-99.9,29.88,ESE,122,0.0,1.0,1,0.00,,,0.00,WeatherCatV1.21B27,2013-08-12 07:58:00,
2013-08-12 01:03:00,48.4,-99.9,29.88,SSE,155,0.0,0.0,1,0.00,,,0.00,WeatherCatV1.21B27,2013-08-12 08:03:00,
2013-08-12 01:08:00,48.4,-99.9,29.88,SSE,150,0.0,0.0,1,0.00,,,0.00,WeatherCatV1.21B27,2013-08-12 08:08:00,
2013-08-12 01:13:00,48.4,-99.9,29.88,SSE,151,0.0,0.0,1,0.00,,,0.00,WeatherCatV1.21B27,2013-08-12 08:13:00,
2013-08-12 01:18:00,48.4,-99.9,29.87,SSE,150,0.0,0.0,1,0.00,,,0.00,WeatherCatV1.21B27,2013-08-12 08:18:00,
2013-08-12 01:23:00,48.4,-99.9,29.87,SE,136,0.0,0.0,1,0.00,,,0.00,WeatherCatV1.21B27,2013-08-12 08:23:00,
2013-08-12 01:28:00,48.3,-99.9,29.87,SE,136,0.0,0.0,1,0.00,,,0.00,WeatherCatV1.21B27,2013-08-12 08:28:00,
2013-08-12 01:33:00,48.3,-99.9,29.87,SSE,154,0.0,0.0,1,0.00,,,0.00,WeatherCatV1.21B27,2013-08-12 08:33:00,
2013-08-12 01:38:00,48.4,-99.9,29.87,SSE,153,0.0,0.0,1,0.00,,,0.00,WeatherCatV1.21B27,2013-08-12 08:38:00,
2013-08-12 01:43:00,48.4,-99.9,29.87,SSE,153,0.0,0.0,1,0.00,,,0.00,WeatherCatV1.21B27,2013-08-12 08:43:00,
2013-08-12 01:48:00,48.3,-99.9,29.87,SSE,167,0.0,0.0,1,0.00,,,0.00,WeatherCatV1.21B27,2013-08-12 08:48:00,
2013-08-12 01:53:00,48.3,-99.9,29.87,SE,136,0.0,0.0,1,0.00,,,0.00,WeatherCatV1.21B27,2013-08-12 08:53:00,
2013-08-12 01:58:00,48.3,-99.9,29.87,SE,136,0.0,0.0,1,0.00,,,0.00,WeatherCatV1.21B27,2013-08-12 08:58:00,
2013-08-12 02:03:00,48.3,-99.9,29.87,SSE,153,0.0,0.0,1,0.00,,,0.00,WeatherCatV1.21B27,2013-08-12 09:03:00,
2013-08-12 02:08:00,48.3,-99.9,29.87,SSE,160,0.0,0.0,1,0.00,,,0.00,WeatherCatV1.21B27,2013-08-12 09:08:00,
2013-08-12 02:13:00,48.3,-99.9,29.87,SSE,159,0.0,0.0,1,0.00,,,0.00,WeatherCatV1.21B27,2013-08-12 09:13:00,
2013-08-12 02:18:00,48.2,-99.9,29.87,SE,142,0.0,0.0,1,0.00,,,0.00,WeatherCatV1.21B27,2013-08-12 09:18:00,
2013-08-12 02:23:00,48.1,-99.9,29.86,SE,142,0.0,0.0,1,0.00,,,0.00,WeatherCatV1.21B27,2013-08-12 09:23:00,
2013-08-12 02:28:00,48.2,-99.9,29.86,SE,143,0.0,0.0,1,0.00,,,0.00,WeatherCatV1.21B27,2013-08-12 09:28:00,
2013-08-12 02:33:00,48.3,-99.9,29.86,SE,142,0.0,0.0,1,0.00,,,0.00,WeatherCatV1.21B27,2013-08-12 09:33:00,
2013-08-12 02:38:00,48.3,-99.9,29.86,SE,136,0.0,0.0,1,0.00,,,0.00,WeatherCatV1.21B27,2013-08-12 09:38:00,
2013-08-12 02:43:00,48.3,-99.9,29.86,SE,141,0.0,0.0,1,0.00,,,0.00,WeatherCatV1.21B27,2013-08-12 09:43:00,
2013-08-12 02:48:00,48.2,-99.9,29.86,SE,141,0.0,0.0,1,0.00,,,0.00,WeatherCatV1.21B27,2013-08-12 09:48:00,
2013-08-12 02:53:00,48.2,-99.9,29.86,SE,142,0.0,0.0,1,0.00,,,0.00,WeatherCatV1.21B27,2013-08-12 09:53:00,
2013-08-12 02:58:00,48.3,-99.9,29.86,SE,142,0.0,0.0,1,0.00,,,0.00,WeatherCatV1.21B27,2013-08-12 09:58:00,
2013-08-12 03:03:00,48.1,-99.9,29.86,SE,138,0.0,0.0,1,0.00,,,0.00,WeatherCatV1.21B27,2013-08-12 10:03:00,
2013-08-12 03:08:00,48.0,-99.9,29.85,SE,146,0.0,1.0,1,0.00,,,0.00,WeatherCatV1.21B27,2013-08-12 10:08:00,
2013-08-12 03:13:00,48.0,-99.9,29.85,SE,145,0.0,0.0,1,0.00,,,0.00,WeatherCatV1.21B27,2013-08-12 10:13:00,
2013-08-12 03:18:00,48.0,-99.9,29.85,ESE,118,0.0,0.0,1,0.00,,,0.00,WeatherCatV1.21B27,2013-08-12 10:18:00,
2013-08-12 03:23:00,47.9,-99.9,29.85,SE,146,0.0,0.0,1,0.00,,,0.00,WeatherCatV1.21B27,2013-08-12 10:23:00,
2013-08-12 03:28:00,47.9,-99.9,29.86,SE,146,0.0,0.0,1,0.00,,,0.00,WeatherCatV1.21B27,2013-08-12 10:28:00,
2013-08-12 03:33:00,47.9,-99.9,29.86,SE,146,0.0,0.0,1,0.00,,,0.00,WeatherCatV1.21B27,2013-08-12 10:33:00,
2013-08-12 03:38:00,48.0,-99.9,29.85,SSE,147,0.0,0.0,1,0.00,,,0.00,WeatherCatV1.21B27,2013-08-12 10:38:00,
2013-08-12 03:43:00,48.0,-99.9,29.85,SSE,147,0.0,0.0,1,0.00,,,0.00,WeatherCatV1.21B27,2013-08-12 10:43:00,
2013-08-12 03:48:00,47.9,-99.9,29.85,SE,146,0.0,0.0,1,0.00,,,0.00,WeatherCatV1.21B27,2013-08-12 10:48:00,
2013-08-12 03:53:00,48.0,-99.9,29.85,SE,146,0.0,0.0,1,0.00,,,0.00,WeatherCatV1.21B27,2013-08-12 10:53:00,
2013-08-12 03:58:00,48.0,-99.9,29.85,SE,146,0.0,0.0,1,0.00,,,0.00,WeatherCatV1.21B27,2013-08-12 10:58:00,
2013-08-12 04:03:00,47.9,-99.9,29.85,SSE,147,0.0,0.0,1,0.00,,,0.00,WeatherCatV1.21B27,2013-08-12 11:03:00,
2013-08-12 04:08:00,47.9,-99.9,29.86,SE,146,0.0,0.0,1,0.00,,,0.00,WeatherCatV1.21B27,2013-08-12 11:08:00,
2013-08-12 04:13:00,47.7,-99.9,29.85,SE,146,0.0,0.0,1,0.00,,,0.00,WeatherCatV1.21B27,2013-08-12 11:13:00,
2013-08-12 04:18:00,47.7,-99.9,29.86,SE,146,0.0,0.0,1,0.00,,,0.00,WeatherCatV1.21B27,2013-08-12 11:18:00,
2013-08-12 04:23:00,47.7,-99.9,29.85,SSE,148,0.0,0.0,1,0.00,,,0.00,WeatherCatV1.21B27,2013-08-12 11:23:00,
2013-08-12 04:28:00,47.7,-99.9,29.86,SSE,147,0.0,0.0,1,0.00,,,0.00,WeatherCatV1.21B27,2013-08-12 11:28:00,
2013-08-12 04:33:00,47.7,-99.9,29.86,SE,146,0.0,0.0,1,0.00,,,0.00,WeatherCatV1.21B27,2013-08-12 11:33:00,
2013-08-12 04:38:00,47.6,-99.9,29.86,SE,146,0.0,0.0,1,0.00,,,0.00,WeatherCatV1.21B27,2013-08-12 11:38:00,
2013-08-12 04:43:00,47.6,-99.9,29.86,SE,146,0.0,0.0,1,0.00,,,0.00,WeatherCatV1.21B27,2013-08-12 11:43:00,
2013-08-12 04:48:00,47.5,-99.9,29.86,SE,146,0.0,0.0,1,0.00,,,0.00,WeatherCatV1.21B27,2013-08-12 11:48:00,
2013-08-12 04:53:00,47.5,-99.9,29.86,SE,146,0.0,0.0,1,0.00,,,0.00,WeatherCatV1.21B27,2013-08-12 11:53:00,
2013-08-12 04:58:00,47.5,-99.9,29.86,SSE,147,0.0,0.0,1,0.00,,,0.00,WeatherCatV1.21B27,2013-08-12 11:58:00,
2013-08-12 05:03:00,47.5,-99.9,29.86,SE,146,0.0,0.0,1,0.00,,,0.00,WeatherCatV1.21B27,2013-08-12 12:03:00,
2013-08-12 05:08:00,47.4,-99.9,29.86,SE,146,0.0,0.0,1,0.00,,,0.00,WeatherCatV1.21B27,2013-08-12 12:08:00,
2013-08-12 05:13:00,47.4,-99.9,29.86,SE,146,0.0,0.0,1,0.00,,,0.00,WeatherCatV1.21B27,2013-08-12 12:13:00,
2013-08-12 05:18:00,47.5,-99.9,29.86,SE,146,0.0,0.0,1,0.00,,,0.00,WeatherCatV1.21B27,2013-08-12 12:18:00,
2013-08-12 05:23:00,47.4,-99.9,29.86,SE,146,0.0,0.0,1,0.00,,,0.00,WeatherCatV1.21B27,2013-08-12 12:23:00,
2013-08-12 05:28:00,47.4,-99.9,29.86,SSE,148,0.0,0.0,1,0.00,,,0.00,WeatherCatV1.21B27,2013-08-12 12:28:00,
2013-08-12 05:33:00,47.3,-99.9,29.86,SSE,148,0.0,0.0,1,0.00,,,0.00,WeatherCatV1.21B27,2013-08-12 12:33:00,
2013-08-12 05:38:00,47.1,-99.9,29.86,SSE,148,0.0,0.0,1,0.00,,,0.00,WeatherCatV1.21B27,2013-08-12 12:38:00,
2013-08-12 05:43:00,46.9,-99.9,29.86,SSE,148,0.0,0.0,1,0.00,,,0.00,WeatherCatV1.21B27,2013-08-12 12:43:00,
2013-08-12 05:48:00,46.9,-99.9,29.87,SSE,148,0.0,0.0,1,0.00,,,0.00,WeatherCatV1.21B27,2013-08-12 12:48:00,
2013-08-12 05:53:00,46.9,-99.9,29.86,SSE,150,0.0,0.0,1,0.00,,,0.00,WeatherCatV1.21B27,2013-08-12 12:53:00,
2013-08-12 05:58:00,46.9,-99.9,29.87,SSE,151,0.0,0.0,1,0.00,,,0.00,WeatherCatV1.21B27,2013-08-12 12:58:00,
2013-08-12 06:03:00,46.9,-99.9,29.87,SSE,154,0.0,0.0,1,0.00,,,0.00,WeatherCatV1.21B27,2013-08-12 13:03:00,
2013-08-12 06:08:00,47.0,-99.9,29.88,SSE,154,0.0,0.0,1,0.00,,,0.00,WeatherCatV1.21B27,2013-08-12 13:08:00,
2013-08-12 06:13:00,47.0,-99.9,29.88,SSE,154,0.0,0.0,1,0.00,,,0.00,WeatherCatV1.21B27,2013-08-12 13:13:00,
2013-08-12 06:18:00,46.9,-99.9,29.88,SSE,153,0.0,0.0,1,0.00,,,0.00,WeatherCatV1.21B27,2013-08-12 13:18:00,
2013-08-12 06:23:00,46.9,-99.9,29.88,SSE,154,0.0,0.0,1,0.00,,,0.00,WeatherCatV1.21B27,2013-08-12 13:23:00,
2013-08-12 06:28:00,46.9,-99.9,29.88,SSE,154,0.0,0.0,1,0.00,,,0.00,WeatherCatV1.21B27,2013-08-12 13:28:00,
2013-08-12 06:33:00,46.9,-99.9,29.88,SSE,154,0.0,0.0,1,0.00,,,0.00,WeatherCatV1.21B27,2013-08-12 13:33:00,
2013-08-12 06:38:00,47.0,-99.9,29.88,SSE,153,0.0,0.0,1,0.00,,,0.00,WeatherCatV1.21B27,2013-08-12 13:38:00,
2013-08-12 06:43:00,47.1,-99.9,29.88,SSE,154,0.0,0.0,1,0.00,,,0.00,WeatherCatV1.21B27,2013-08-12 13:43:00,
2013-08-12 06:48:00,46.9,-99.9,29.88,SSE,153,0.0,0.0,1,0.00,,,0.00,WeatherCatV1.21B27,2013-08-12 13:48:00,
2013-08-12 06:53:00,46.9,-99.9,29.88,SSE,154,0.0,0.0,1,0.00,,,0.00,WeatherCatV1.21B27,2013-08-12 13:53:00,
2013-08-12 06:58:00,46.8,-99.9,29.89,SSE,154,0.0,0.0,1,0.00,,,0.00,WeatherCatV1.21B27,2013-08-12 13:58:00,
2013-08-12 07:03:00,46.9,-99.9,29.89,SSE,154,0.0,0.0,1,0.00,,,0.00,WeatherCatV1.21B27,2013-08-12 14:03:00,
2013-08-12 07:08:00,47.0,-99.9,29.89,SSE,154,0.0,0.0,1,0.00,,,0.00,WeatherCatV1.21B27,2013-08-12 14:08:00,
2013-08-12 07:13:00,47.2,-99.9,29.89,SSE,154,0.0,0.0,1,0.00,,,0.00,WeatherCatV1.21B27,2013-08-12 14:13:00,
2013-08-12 07:18:00,47.5,-99.9,29.89,SSE,154,0.0,0.0,1,0.00,,,0.00,WeatherCatV1.21B27,2013-08-12 14:18:00,
2013-08-12 07:23:00,47.7,-99.9,29.89,SSE,154,0.0,0.0,1,0.00,,,0.00,WeatherCatV1.21B27,2013-08-12 14:23:00,
2013-08-12 07:28:00,47.6,-99.9,29.89,SSE,153,0.0,0.0,1,0.00,,,0.00,WeatherCatV1.21B27,2013-08-12 14:28:00,
2013-08-12 07:33:00,48.0,-99.9,29.89,SSE,154,0.0,0.0,1,0.00,,,0.00,WeatherCatV1.21B27,2013-08-12 14:33:00,
2013-08-12 07:38:00,48.0,-99.9,29.90,SSE,153,0.0,0.0,1,0.00,,,0.00,WeatherCatV1.21B27,2013-08-12 14:38:00,
2013-08-12 07:43:00,48.2,-99.9,29.90,SSE,153,0.0,0.0,1,0.00,,,0.00,WeatherCatV1.21B27,2013-08-12 14:43:00,
2013-08-12 07:48:00,48.3,-99.9,29.90,South,173,0.0,0.0,1,0.00,,,0.00,WeatherCatV1.21B27,2013-08-12 14:48:00,
2013-08-12 07:53:00,48.3,-99.9,29.90,SSE,156,0.0,2.0,1,0.00,,,0.00,WeatherCatV1.21B27,2013-08-12 14:53:00,
2013-08-12 07:58:00,48.5,-99.9,29.90,SSE,158,0.0,0.0,1,0.00,,,0.00,WeatherCatV1.21B27,2013-08-12 14:58:00,
2013-08-12 08:03:00,48.6,-99.9,29.90,SSE,158,0.0,0.0,1,0.00,,,0.00,WeatherCatV1.21B27,2013-08-12 15:03:00,
2013-08-12 08:08:00,49.5,-99.9,29.91,SSE,152,0.0,0.0,1,0.00,,,0.00,WeatherCatV1.21B27,2013-08-12 15:08:00,
2013-08-12 08:13:00,50.0,-99.9,29.90,SSE,152,0.0,0.0,1,0.00,,,0.00,WeatherCatV1.21B27,2013-08-12 15:13:00,
2013-08-12 08:18:00,50.7,-99.9,29.90,South,182,0.0,0.0,1,0.00,,,0.00,WeatherCatV1.21B27,2013-08-12 15:18:00,
2013-08-12 08:23:00,51.5,-99.9,29.91,South,176,0.0,0.0,1,0.00,,,0.01,WeatherCatV1.21B27,2013-08-12 15:23:00,
2013-08-12 08:28:00,50.6,-99.9,29.90,SSE,166,0.0,3.0,1,0.00,,,0.01,WeatherCatV1.21B27,2013-08-12 15:28:00,
2013-08-12 08:33:00,50.6,-99.9,29.90,South,182,4.0,4.0,1,0.00,,,0.01,WeatherCatV1.21B27,2013-08-12 15:33:00,
2013-08-12 08:38:00,50.4,-99.9,29.91,SSE,166,2.0,3.0,1,0.00,,,0.01,WeatherCatV1.21B27,2013-08-12 15:38:00,
2013-08-12 08:43:00,50.8,-99.9,29.91,SSE,149,3.0,3.0,1,0.00,,,0.01,WeatherCatV1.21B27,2013-08-12 15:43:00,
2013-08-12 08:48:00,51.2,-99.9,29.91,South,174,3.0,4.0,1,0.00,,,0.01,WeatherCatV1.21B27,2013-08-12 15:48:00,
2013-08-12 08:53:00,51.4,-99.9,29.91,South,175,2.0,2.0,1,0.00,,,0.01,WeatherCatV1.21B27,2013-08-12 15:53:00,
2013-08-12 09:03:00,52.0,-99.9,29.91,SSE,167,2.0,3.0,1,0.00,,,0.01,WeatherCatV1.21B27,2013-08-12 16:03:00,
2013-08-12 09:13:00,53.2,-99.9,29.91,South,178,0.0,3.0,1,0.00,,,0.01,WeatherCatV1.21B27,2013-08-12 16:13:00,
2013-08-12 09:18:00,53.8,-99.9,29.91,SW,215,0.0,4.0,1,0.00,,,0.01,WeatherCatV1.21B27,2013-08-12 16:18:00,
2013-08-12 09:23:00,54.7,-99.9,29.91,South,182,4.0,4.0,1,0.00,,,0.01,WeatherCatV1.21B27,2013-08-12 16:23:00,
2013-08-12 09:28:00,55.4,-99.9,29.91,SSE,157,1.0,3.0,1,0.00,,,0.01,WeatherCatV1.21B27,2013-08-12 16:28:00,
2013-08-12 09:33:00,55.9,-99.9,29.91,SSE,162,1.0,3.0,1,0.00,,,0.01,WeatherCatV1.21B27,2013-08-12 16:33:00,
2013-08-12 09:38:00,57.1,-99.9,29.91,South,169,1.0,3.0,1,0.00,,,0.01,WeatherCatV1.21B27,2013-08-12 16:38:00,
2013-08-12 09:43:00,59.4,-99.9,29.91,South,175,3.0,4.0,1,0.00,,,0.01,WeatherCatV1.21B27,2013-08-12 16:43:00,
2013-08-12 09:48:00,60.9,36.4,29.90,SE,141,0.0,1.0,40,0.00,,,0.01,WeatherCatV1.21B27,2013-08-12 16:48:00,
2013-08-12 09:53:00,62.0,50.9,29.90,South,175,3.0,3.0,67,0.00,,,0.01,WeatherCatV1.21B27,2013-08-12 16:53:00,
2013-08-12 09:58:00,62.5,53.3,29.90,South,175,3.0,3.0,72,0.00,,,0.01,WeatherCatV1.21B27,2013-08-12 16:58:00,
2013-08-12 10:03:00,63.2,54.8,29.90,South,180,4.0,4.0,74,0.00,,,0.01,WeatherCatV1.21B27,2013-08-12 17:03:00,
2013-08-12 10:08:00,63.9,56.5,29.90,South,179,3.0,3.0,77,0.00,,,0.01,WeatherCatV1.21B27,2013-08-12 17:08:00,
2013-08-12 10:13:00,64.5,57.5,29.90,South,176,2.0,4.0,78,0.00,,,0.01,WeatherCatV1.21B27,2013-08-12 17:13:00,
2013-08-12 10:18:00,64.5,57.1,29.90,SE,142,0.0,4.0,77,0.00,,,0.01,WeatherCatV1.21B27,2013-08-12 17:18:00,
2013-08-12 10:23:00,64.9,57.5,29.90,South,171,1.0,2.0,77,0.00,,,0.01,WeatherCatV1.21B27,2013-08-12 17:23:00,
2013-08-12 10:28:00,65.7,58.3,29.90,SE,131,3.0,3.0,77,0.00,,,0.01,WeatherCatV1.21B27,2013-08-12 17:28:00,
2013-08-12 10:33:00,66.0,58.2,29.90,SE,145,0.0,3.0,76,0.00,,,0.01,WeatherCatV1.21B27,2013-08-12 17:33:00,
2013-08-12 10:38:00,66.9,58.7,29.90,SSE,151,2.0,2.0,75,0.00,,,0.01,WeatherCatV1.21B27,2013-08-12 17:38:00,
2013-08-12 10:43:00,67.9,58.5,29.90,South,180,0.0,4.0,72,0.00,,,0.01,WeatherCatV1.21B27,2013-08-12 17:43:00,
2013-08-12 10:48:00,67.8,58.4,29.90,SE,140,1.0,1.0,72,0.00,,,0.01,WeatherCatV1.21B27,2013-08-12 17:48:00,
2013-08-12 10:53:00,68.1,58.3,29.90,SSE,159,0.0,4.0,71,0.00,,,0.01,WeatherCatV1.21B27,2013-08-12 17:53:00,
2013-08-12 10:58:00,69.0,59.2,29.90,South,188,5.0,6.0,71,0.00,,,0.01,WeatherCatV1.21B27,2013-08-12 17:58:00,
2013-08-12 11:08:00,68.5,58.3,29.90,SSE,167,4.0,5.0,70,0.00,,,0.01,WeatherCatV1.21B27,2013-08-12 18:08:00,
2013-08-12 11:13:00,69.2,59.0,29.90,South,177,2.0,6.0,70,0.00,,,0.01,WeatherCatV1.21B27,2013-08-12 18:13:00,
2013-08-12 11:18:00,69.1,58.5,29.90,ESE,111,2.0,5.0,69,0.00,,,0.01,WeatherCatV1.21B27,2013-08-12 18:18:00,
2013-08-12 11:23:00,69.9,58.8,29.90,ESE,111,2.0,4.0,68,0.00,,,0.01,WeatherCatV1.21B27,2013-08-12 18:23:00,
2013-08-12 11:29:00,70.1,59.0,29.90,South,177,3.0,6.0,68,0.00,,,0.01,WeatherCatV1.21B27,2013-08-12 18:29:00,
2013-08-12 11:38:00,70.0,58.5,29.90,SSE,160,2.0,5.0,67,0.00,,,0.01,WeatherCatV1.21B27,2013-08-12 18:38:00,
2013-08-12 11:43:00,70.5,58.6,29.90,SE,132,3.0,4.0,66,0.00,,,0.01,WeatherCatV1.21B27,2013-08-12 18:43:00,
2013-08-12 11:49:00,70.9,59.0,29.89,SE,128,3.0,4.0,66,0.00,,,0.01,WeatherCatV1.21B27,2013-08-12 18:49:00,
2013-08-12 11:58:00,71.7,59.3,29.89,South,175,1.0,5.0,65,0.00,,,0.01,WeatherCatV1.21B27,2013-08-12 18:58:00,
2013-08-12 12:03:00,71.2,58.8,29.89,SSW,211,2.0,4.0,65,0.00,,,0.01,WeatherCatV1.21B27,2013-08-12 19:03:00,
2013-08-12 12:08:00,71.6,59.6,29.89,South,178,1.0,4.0,66,0.00,,,0.01,WeatherCatV1.21B27,2013-08-12 19:08:00,
2013-08-12 12:13:00,72.6,60.1,29.89,SE,130,2.0,3.0,65,0.00,,,0.01,WeatherCatV1.21B27,2013-08-12 19:13:00,
2013-08-12 12:18:00,73.0,59.6,29.89,SSE,164,4.0,4.0,63,0.00,,,0.01,WeatherCatV1.21B27,2013-08-12 19:18:00,
2013-08-12 12:23:00,72.8,59.5,29.89,SSE,149,0.0,6.0,63,0.00,,,0.01,WeatherCatV1.21B27,2013-08-12 19:23:00,
2013-08-12 12:28:00,73.1,59.3,29.89,ESE,111,4.0,5.0,62,0.00,,,0.01,WeatherCatV1.21B27,2013-08-12 19:28:00,
2013-08-12 12:33:00,73.1,59.7,29.89,SSE,157,4.0,5.0,63,0.00,,,0.01,WeatherCatV1.21B27,2013-08-12 19:33:00,
2013-08-12 12:38:00,73.2,59.8,29.89,SSE,160,2.0,2.0,63,0.00,,,0.01,WeatherCatV1.21B27,2013-08-12 19:38:00,
2013-08-12 12:43:00,73.5,59.7,29.89,South,174,5.0,5.0,62,0.00,,,0.01,WeatherCatV1.21B27,2013-08-12 19:43:00,
2013-08-12 12:48:00,74.7,60.3,29.89,South,177,0.0,3.0,61,0.00,,,0.01,WeatherCatV1.21B27,2013-08-12 19:48:00,
2013-08-12 12:53:00,76.1,59.7,29.89,SE,138,0.0,4.0,57,0.00,,,0.01,WeatherCatV1.21B27,2013-08-12 19:53:00,
2013-08-12 12:58:00,76.2,60.3,29.89,ESE,111,3.0,6.0,58,0.00,,,0.01,WeatherCatV1.21B27,2013-08-12 19:58:00,
2013-08-12 13:03:00,75.4,60.5,29.89,South,173,3.0,3.0,60,0.00,,,0.01,WeatherCatV1.21B27,2013-08-12 20:03:00,
2013-08-12 13:08:00,76.2,60.8,29.89,ENE,69,6.0,6.0,59,0.00,,,0.01,WeatherCatV1.21B27,2013-08-12 20:08:00,
2013-08-12 13:13:00,76.0,60.6,29.89,SSE,161,3.0,5.0,59,0.00,,,0.01,WeatherCatV1.21B27,2013-08-12 20:13:00,
2013-08-12 13:18:00,75.9,60.5,29.89,East,96,6.0,7.0,59,0.00,,,0.01,WeatherCatV1.21B27,2013-08-12 20:18:00,
2013-08-12 13:23:00,76.4,61.5,29.89,East,94,3.0,4.0,60,0.00,,,0.01,WeatherCatV1.21B27,2013-08-12 20:23:00,
2013-08-12 13:28:00,76.1,60.7,29.89,South,174,0.0,3.0,59,0.00,,,0.01,WeatherCatV1.21B27,2013-08-12 20:28:00,
2013-08-12 13:33:00,76.8,60.4,29.88,SSE,167,0.0,4.0,57,0.00,,,0.01,WeatherCatV1.21B27,2013-08-12 20:33:00,
2013-08-12 13:38:00,77.0,60.1,29.88,ESE,121,1.0,3.0,56,0.00,,,0.01,WeatherCatV1.21B27,2013-08-12 20:38:00,
2013-08-12 13:43:00,77.0,59.6,29.88,ENE,61,2.0,6.0,55,0.00,,,0.01,WeatherCatV1.21B27,2013-08-12 20:43:00,
2013-08-12 13:48:00,77.1,58.6,29.88,ENE,59,6.0,8.0,53,0.00,,,0.01,WeatherCatV1.21B27,2013-08-12 20:48:00,
2013-08-12 13:53:00,77.9,59.9,29.88,South,169,1.0,2.0,54,0.00,,,0.01,WeatherCatV1.21B27,2013-08-12 20:53:00,
2013-08-12 13:58:00,79.0,59.8,29.88,ESE,119,1.0,4.0,52,0.00,,,0.01,WeatherCatV1.21B27,2013-08-12 20:58:00,
2013-08-12 14:03:00,78.8,59.7,29.88,SSW,202,2.0,5.0,52,0.00,,,0.01,WeatherCatV1.21B27,2013-08-12 21:03:00,
2013-08-12 14:08:00,79.5,59.2,29.88,WSW,241,3.0,4.0,50,0.00,,,0.01,WeatherCatV1.21B27,2013-08-12 21:08:00,
2013-08-12 14:13:00,78.9,58.7,29.88,SE,125,1.0,7.0,50,0.00,,,0.01,WeatherCatV1.21B27,2013-08-12 21:13:00,
2013-08-12 14:18:00,78.8,59.1,29.88,ESE,106,3.0,6.0,51,0.00,,,0.01,WeatherCatV1.21B27,2013-08-12 21:18:00,
2013-08-12 14:23:00,78.6,57.8,29.88,SSE,163,3.0,4.0,49,0.00,,,0.01,WeatherCatV1.21B27,2013-08-12 21:23:00,
2013-08-12 14:28:00,79.2,57.8,29.88,ENE,63,5.0,9.0,48,0.00,,,0.01,WeatherCatV1.21B27,2013-08-12 21:28:00,
2013-08-12 14:33:00,78.5,57.7,29.88,SSE,157,1.0,4.0,49,0.00,,,0.01,WeatherCatV1.21B27,2013-08-12 21:33:00,
2013-08-12 14:38:00,79.6,58.7,29.87,SE,126,3.0,6.0,49,0.00,,,0.01,WeatherCatV1.21B27,2013-08-12 21:38:00,
2013-08-12 14:43:00,79.0,58.8,29.87,East,82,4.0,5.0,50,0.00,,,0.01,WeatherCatV1.21B27,2013-08-12 21:43:00,
2013-08-12 14:48:00,79.1,57.7,29.87,SE,136,1.0,2.0,48,0.00,,,0.01,WeatherCatV1.21B27,2013-08-12 21:48:00,
2013-08-12 14:53:00,79.0,57.6,29.87,East,82,4.0,5.0,48,0.00,,,0.01,WeatherCatV1.21B27,2013-08-12 21:53:00,
2013-08-12 14:59:00,78.9,58.1,29.87,ESE,113,2.0,3.0,49,0.00,,,0.01,WeatherCatV1.21B27,2013-08-12 21:59:00,
2013-08-12 15:08:00,79.1,58.8,29.87,SE,126,2.0,5.0,50,0.00,,,0.01,WeatherCatV1.21B27,2013-08-12 22:08:00,
2013-08-12 15:13:00,78.6,58.4,29.87,ESE,112,3.0,5.0,50,0.00,,,0.01,WeatherCatV1.21B27,2013-08-12 22:13:00,
2013-08-12 15:18:00,79.0,58.2,29.87,ESE,123,3.0,5.0,49,0.00,,,0.01,WeatherCatV1.21B27,2013-08-12 22:18:00,
2013-08-12 15:23:00,79.2,58.9,29.87,SE,144,2.0,3.0,50,0.00,,,0.01,WeatherCatV1.21B27,2013-08-12 22:23:00,
2013-08-12 15:28:00,79.6,57.6,29.87,NE,47,4.0,5.0,47,0.00,,,0.01,WeatherCatV1.21B27,2013-08-12 22:28:00,
2013-08-12 15:33:00,79.0,57.6,29.87,NE,56,4.0,4.0,48,0.00,,,0.01,WeatherCatV1.21B27,2013-08-12 22:33:00,
2013-08-12 15:38:00,78.9,58.7,29.87,NE,51,5.0,7.0,50,0.00,,,0.01,WeatherCatV1.21B27,2013-08-12 22:38:00,
2013-08-12 15:43:00,79.1,57.7,29.87,SE,128,1.0,6.0,48,0.00,,,0.01,WeatherCatV1.21B27,2013-08-12 22:43:00,
2013-08-12 15:48:00,79.0,58.2,29.87,ESE,121,1.0,4.0,49,0.00,,,0.01,WeatherCatV1.21B27,2013-08-12 22:48:00,
2013-08-12 15:53:00,79.0,58.2,29.87,ESE,107,2.0,6.0,49,0.00,,,0.01,WeatherCatV1.21B27,2013-08-12 22:53:00,
2013-08-12 15:58:00,79.2,58.4,29.87,ESE,119,0.0,6.0,49,0.00,,,0.01,WeatherCatV1.21B27,2013-08-12 22:58:00,
2013-08-12 16:03:00,79.0,58.2,29.87,SE,126,1.0,1.0,49,0.00,,,0.01,WeatherCatV1.21B27,2013-08-12 23:03:00,
2013-08-12 16:08:00,78.1,57.9,29.87,East,82,4.0,5.0,50,0.00,,,0.01,WeatherCatV1.21B27,2013-08-12 23:08:00,
2013-08-12 16:13:00,77.6,57.5,29.87,WSW,257,3.0,5.0,50,0.00,,,0.01,WeatherCatV1.21B27,2013-08-12 23:13:00,
2013-08-12 16:18:00,77.2,56.5,29.87,ESE,107,2.0,5.0,49,0.00,,,0.01,WeatherCatV1.21B27,2013-08-12 23:18:00,
2013-08-12 16:23:00,76.6,57.1,29.87,ENE,58,4.0,9.0,51,0.00,,,0.01,WeatherCatV1.21B27,2013-08-12 23:23:00,
2013-08-12 16:28:00,76.1,57.2,29.87,South,188,1.0,2.0,52,0.00,,,0.01,WeatherCatV1.21B27,2013-08-12 23:28:00,
2013-08-12 16:33:00,75.7,57.3,29.87,East,90,1.0,2.0,53,0.00,,,0.01,WeatherCatV1.21B27,2013-08-12 23:33:00,
2013-08-12 16:38:00,76.3,57.4,29.87,ESE,117,3.0,9.0,52,0.00,,,0.01,WeatherCatV1.21B27,2013-08-12 23:38:00,
2013-08-12 16:43:00,75.7,56.8,29.87,NE,49,4.0,7.0,52,0.00,,,0.01,WeatherCatV1.21B27,2013-08-12 23:43:00,
2013-08-12 16:48:00,75.5,56.6,29.87,East,80,2.0,2.0,52,0.00,,,0.01,WeatherCatV1.21B27,2013-08-12 23:48:00,
2013-08-12 16:53:00,75.1,56.8,29.87,SSE,165,1.0,4.0,53,0.00,,,0.01,WeatherCatV1.21B27,2013-08-12 23:53:00,
2013-08-12 16:58:00,74.6,56.8,29.87,ESE,122,2.0,4.0,54,0.00,,,0.01,WeatherCatV1.21B27,2013-08-12 23:58:00,
2013-08-12 17:03:00,75.1,57.3,29.87,SE,128,2.0,5.0,54,0.00,,,0.01,WeatherCatV1.21B27,2013-08-13 00:03:00,
2013-08-12 17:08:00,74.4,57.2,29.87,East,98,1.0,5.0,55,0.00,,,0.01,WeatherCatV1.21B27,2013-08-13 00:08:00,
2013-08-12 17:13:00,73.9,57.2,29.87,NE,43,4.0,6.0,56,0.00,,,0.01,WeatherCatV1.21B27,2013-08-13 00:13:00,
2013-08-12 17:18:00,73.4,57.2,29.87,SSE,155,0.0,4.0,57,0.00,,,0.01,WeatherCatV1.21B27,2013-08-13 00:18:00,
2013-08-12 17:23:00,73.2,57.5,29.87,SSE,164,4.0,6.0,58,0.00,,,0.01,WeatherCatV1.21B27,2013-08-13 00:23:00,
2013-08-12 17:28:00,72.8,57.2,29.87,South,191,0.0,3.0,58,0.00,,,0.01,WeatherCatV1.21B27,2013-08-13 00:28:00,
2013-08-12 17:33:00,72.3,56.7,29.87,SE,141,0.0,6.0,58,0.00,,,0.01,WeatherCatV1.21B27,2013-08-13 00:33:00,
2013-08-12 17:38:00,72.0,56.4,29.87,South,171,0.0,0.0,58,0.00,,,0.01,WeatherCatV1.21B27,2013-08-13 00:38:00,
2013-08-12 17:43:00,71.8,56.2,29.88,East,88,2.0,4.0,58,0.00,,,0.01,WeatherCatV1.21B27,2013-08-13 00:43:00,
2013-08-12 17:48:00,71.9,56.3,29.87,ESE,107,4.0,4.0,58,0.00,,,0.01,WeatherCatV1.21B27,2013-08-13 00:48:00,
2013-08-12 17:53:00,71.5,55.9,29.87,East,83,5.0,6.0,58,0.00,,,0.01,WeatherCatV1.21B27,2013-08-13 00:53:00,
2013-08-12 17:58:00,70.8,55.8,29.87,ESE,122,0.0,2.0,59,0.00,,,0.01,WeatherCatV1.21B27,2013-08-13 00:58:00,
2013-08-12 18:03:00,70.3,56.2,29.87,SSE,150,1.0,3.0,61,0.00,,,0.01,WeatherCatV1.21B27,2013-08-13 01:03:00,
2013-08-12 18:08:00,70.0,56.4,29.88,SSE,168,0.0,0.0,62,0.00,,,0.01,WeatherCatV1.21B27,2013-08-13 01:08:00,
2013-08-12 18:13:00,69.7,56.1,29.88,South,176,2.0,3.0,62,0.00,,,0.01,WeatherCatV1.21B27,2013-08-13 01:13:00,
2013-08-12 18:18:00,69.2,55.6,29.87,South,186,0.0,4.0,62,0.00,,,0.01,WeatherCatV1.21B27,2013-08-13 01:18:00,
2013-08-12 18:23:00,68.7,55.6,29.87,SE,141,1.0,7.0,63,0.00,,,0.01,WeatherCatV1.21B27,2013-08-13 01:23:00,
2013-08-12 18:28:00,68.3,56.1,29.87,South,178,2.0,4.0,65,0.00,,,0.01,WeatherCatV1.21B27,2013-08-13 01:28:00,
2013-08-12 18:33:00,67.6,55.8,29.87,East,89,2.0,3.0,66,0.00,,,0.01,WeatherCatV1.21B27,2013-08-13 01:33:00,
2013-08-12 18:38:00,67.3,55.5,29.87,South,188,1.0,3.0,66,0.00,,,0.01,WeatherCatV1.21B27,2013-08-13 01:38:00,
2013-08-12 18:43:00,66.6,55.3,29.87,South,173,0.0,4.0,67,0.00,,,0.01,WeatherCatV1.21B27,2013-08-13 01:43:00,
2013-08-12 18:48:00,66.0,55.5,29.88,South,179,0.0,0.0,69,0.00,,,0.01,WeatherCatV1.21B27,2013-08-13 01:48:00,
2013-08-12 18:53:00,65.2,55.2,29.88,SSE,163,0.0,0.0,70,0.00,,,0.01,WeatherCatV1.21B27,2013-08-13 01:53:00,
2013-08-12 18:58:00,64.6,55.0,29.88,SSE,155,2.0,3.0,71,0.00,,,0.01,WeatherCatV1.21B27,2013-08-13 01:58:00,
2013-08-12 19:03:00,63.4,54.6,29.87,SE,144,0.0,3.0,73,0.00,,,0.01,WeatherCatV1.21B27,2013-08-13 02:03:00,
2013-08-12 19:08:00,62.5,54.1,29.87,SE,130,0.0,0.0,74,0.00,,,0.01,WeatherCatV1.21B27,2013-08-13 02:08:00,
2013-08-12 19:13:00,61.6,53.6,29.87,SE,146,1.0,2.0,75,0.00,,,0.01,WeatherCatV1.21B27,2013-08-13 02:13:00,
2013-08-12 19:18:00,60.5,52.9,29.88,SE,141,0.0,2.0,76,0.00,,,0.01,WeatherCatV1.21B27,2013-08-13 02:18:00,
2013-08-12 19:23:00,59.5,52.3,29.88,SSE,157,1.0,4.0,77,0.00,,,0.01,WeatherCatV1.21B27,2013-08-13 02:23:00,
2013-08-12 19:28:00,58.4,51.2,29.88,South,184,3.0,4.0,77,0.00,,,0.01,WeatherCatV1.21B27,2013-08-13 02:28:00,
2013-08-12 19:33:00,57.5,50.0,29.88,South,175,3.0,4.0,76,0.00,,,0.01,WeatherCatV1.21B27,2013-08-13 02:33:00,
2013-08-12 19:38:00,56.7,48.5,29.88,SSE,167,3.0,4.0,74,0.00,,,0.01,WeatherCatV1.21B27,2013-08-13 02:38:00,
2013-08-12 19:43:00,56.1,47.2,29.89,South,176,3.0,4.0,72,0.00,,,0.01,WeatherCatV1.21B27,2013-08-13 02:43:00,
2013-08-12 19:48:00,55.5,45.9,29.89,SE,146,4.0,4.0,70,0.00,,,0.01,WeatherCatV1.21B27,2013-08-13 02:48:00,
2013-08-12 19:53:00,54.9,43.4,29.89,SSE,156,2.0,3.0,65,0.00,,,0.01,WeatherCatV1.21B27,2013-08-13 02:53:00,
2013-08-12 19:58:00,54.5,41.3,29.89,SSE,150,0.0,2.0,61,0.00,,,0.01,WeatherCatV1.21B27,2013-08-13 02:58:00,
2013-08-12 20:03:00,54.1,38.3,29.89,SSE,155,0.0,4.0,55,0.00,,,0.01,WeatherCatV1.21B27,2013-08-13 03:03:00,
2013-08-12 20:08:00,53.7,35.5,29.89,SSE,162,2.0,2.0,50,0.00,,,0.01,WeatherCatV1.21B27,2013-08-13 03:08:00,
2013-08-12 20:13:00,53.4,32.0,29.89,SSE,165,0.0,0.0,44,0.00,,,0.01,WeatherCatV1.21B27,2013-08-13 03:13:00,
2013-08-12 20:18:00,53.1,28.2,29.89,SSE,159,0.0,0.0,38,0.00,,,0.01,WeatherCatV1.21B27,2013-08-13 03:18:00,
2013-08-12 20:23:00,52.9,24.6,29.89,SSE,159,0.0,0.0,33,0.00,,,0.01,WeatherCatV1.21B27,2013-08-13 03:23:00,
2013-08-12 20:28:00,52.6,18.7,29.90,SSE,150,0.0,0.0,26,0.00,,,0.01,WeatherCatV1.21B27,2013-08-13 03:28:00,
2013-08-12 20:33:00,52.4,11.4,29.90,SE,143,0.0,2.0,19,0.00,,,0.01,WeatherCatV1.21B27,2013-08-13 03:33:00,
2013-08-12 20:38:00,52.1,4.4,29.89,SSE,150,0.0,0.0,14,0.00,,,0.01,WeatherCatV1.21B27,2013-08-13 03:38:00,
2013-08-12 20:43:00,51.9,-5.1,29.90,SSE,159,0.0,0.0,9,0.00,,,0.01,WeatherCatV1.21B27,2013-08-13 03:43:00,
2013-08-12 20:48:00,51.7,-45.9,29.90,SSE,148,0.0,0.0,1,0.00,,,0.01,WeatherCatV1.21B27,2013-08-13 03:48:00,
2013-08-12 20:53:00,51.5,-99.9,29.90,SE,126,0.0,0.0,1,0.00,,,0.01,WeatherCatV1.21B27,2013-08-13 03:53:00,
2013-08-12 20:58:00,51.4,-99.9,29.91,SSE,157,0.0,2.0,1,0.00,,,0.01,WeatherCatV1.21B27,2013-08-13 03:58:00,
2013-08-12 21:03:00,51.2,-99.9,29.90,SSE,168,2.0,3.0,1,0.00,,,0.01,WeatherCatV1.21B27,2013-08-13 04:03:00,
2013-08-12 21:08:00,51.0,-99.9,29.90,SSE,159,1.0,3.0,1,0.00,,,0.01,WeatherCatV1.21B27,2013-08-13 04:08:00,
2013-08-12 21:13:00,50.8,-99.9,29.90,SSE,159,2.0,2.0,1,0.00,,,0.01,WeatherCatV1.21B27,2013-08-13 04:13:00,
2013-08-12 21:18:00,50.6,-99.9,29.90,SSE,150,0.0,0.0,1,0.00,,,0.01,WeatherCatV1.21B27,2013-08-13 04:18:00,
2013-08-12 21:23:00,50.4,-99.9,29.90,SSE,157,0.0,1.0,1,0.00,,,0.01,WeatherCatV1.21B27,2013-08-13 04:23:00,
2013-08-12 21:28:00,50.3,-99.9,29.90,SSE,152,0.0,0.0,1,0.00,,,0.01,WeatherCatV1.21B27,2013-08-13 04:28:00,
2013-08-12 21:33:00,50.1,-99.9,29.90,SSE,150,0.0,1.0,1,0.00,,,0.01,WeatherCatV1.21B27,2013-08-13 04:33:00,
2013-08-12 21:38:00,50.0,-99.9,29.90,SSE,148,0.0,0.0,1,0.00,,,0.01,WeatherCatV1.21B27,2013-08-13 04:38:00,
2013-08-12 21:43:00,49.8,-99.9,29.90,SSE,162,0.0,2.0,1,0.00,,,0.01,WeatherCatV1.21B27,2013-08-13 04:43:00,
2013-08-12 21:48:00,49.7,-99.9,29.91,SSE,162,0.0,0.0,1,0.00,,,0.01,WeatherCatV1.21B27,2013-08-13 04:48:00,
2013-08-12 21:53:00,49.5,-99.9,29.90,SSE,163,0.0,0.0,1,0.00,,,0.01,WeatherCatV1.21B27,2013-08-13 04:53:00,
2013-08-12 21:58:00,49.3,-99.9,29.90,SSE,162,0.0,0.0,1,0.00,,,0.01,WeatherCatV1.21B27,2013-08-13 04:58:00,
2013-08-12 22:03:00,49.3,-99.9,29.90,South,179,1.0,1.0,1,0.00,,,0.01,WeatherCatV1.21B27,2013-08-13 05:03:00,
2013-08-12 22:08:00,49.3,-99.9,29.89,SSE,165,0.0,0.0,1,0.00,,,0.01,WeatherCatV1.21B27,2013-08-13 05:08:00,
2013-08-12 22:13:00,49.3,-99.9,29.89,SSE,154,0.0,0.0,1,0.00,,,0.01,WeatherCatV1.21B27,2013-08-13 05:13:00,
2013-08-12 22:18:00,49.3,-99.9,29.89,SSE,154,0.0,0.0,1,0.00,,,0.01,WeatherCatV1.21B27,2013-08-13 05:18:00,
2013-08-12 22:23:00,49.2,-99.9,29.89,SSE,154,0.0,0.0,1,0.00,,,0.01,WeatherCatV1.21B27,2013-08-13 05:23:00,
2013-08-12 22:28:00,49.1,-99.9,29.89,SSE,154,0.0,0.0,1,0.00,,,0.01,WeatherCatV1.21B27,2013-08-13 05:28:00,
2013-08-12 22:33:00,49.1,-99.9,29.89,SSE,155,0.0,0.0,1,0.00,,,0.01,WeatherCatV1.21B27,2013-08-13 05:33:00,
2013-08-12 22:38:00,49.1,-99.9,29.89,South,169,3.0,3.0,1,0.00,,,0.01,WeatherCatV1.21B27,2013-08-13 05:38:00,
2013-08-12 22:43:00,49.1,-99.9,29.88,SSE,150,1.0,3.0,1,0.00,,,0.01,WeatherCatV1.21B27,2013-08-13 05:43:00,
2013-08-12 22:48:00,49.1,-99.9,29.89,SSE,162,2.0,2.0,1,0.00,,,0.01,WeatherCatV1.21B27,2013-08-13 05:48:00,
2013-08-12 22:53:00,49.1,-99.9,29.88,South,169,3.0,4.0,1,0.00,,,0.01,WeatherCatV1.21B27,2013-08-13 05:53:00,
2013-08-12 22:58:00,48.9,-99.9,29.88,SE,143,0.0,0.0,1,0.00,,,0.01,WeatherCatV1.21B27,2013-08-13 05:58:00,
2013-08-12 23:03:00,48.8,-99.9,29.88,SSE,156,1.0,3.0,1,0.00,,,0.01,WeatherCatV1.21B27,2013-08-13 06:03:00,
2013-08-12 23:08:00,48.8,-99.9,29.88,SSE,158,0.0,1.0,1,0.00,,,0.01,WeatherCatV1.21B27,2013-08-13 06:08:00,
2013-08-12 23:13:00,48.6,-99.9,29.88,SSE,157,0.0,0.0,1,0.00,,,0.01,WeatherCatV1.21B27,2013-08-13 06:13:00,
2013-08-12 23:18:00,48.4,-99.9,29.88,SSE,157,0.0,0.0,1,0.00,,,0.01,WeatherCatV1.21B27,2013-08-13 06:18:00,
2013-08-12 23:23:00,48.4,-99.9,29.88,SSE,157,0.0,0.0,1,0.00,,,0.01,WeatherCatV1.21B27,2013-08-13 06:23:00,
2013-08-12 23:28:00,48.4,-99.9,29.88,SSE,150,0.0,0.0,1,0.00,,,0.01,WeatherCatV1.21B27,2013-08-13 06:28:00,
2013-08-12 23:33:00,48.3,-99.9,29.88,SSE,153,1.0,1.0,1,0.00,,,0.01,WeatherCatV1.21B27,2013-08-13 06:33:00,
2013-08-12 23:38:00,48.5,-99.9,29.88,SSE,150,0.0,0.0,1,0.00,,,0.01,WeatherCatV1.21B27,2013-08-13 06:38:00,
2013-08-12 23:43:00,48.5,-99.9,29.88,SSE,163,0.0,0.0,1,0.00,,,0.01,WeatherCatV1.21B27,2013-08-13 06:43:00,
2013-08-12 23:48:00,48.5,-99.9,29.88,SSE,165,1.0,2.0,1,0.00,,,0.01,WeatherCatV1.21B27,2013-08-13 06:48:00,
2013-08-12 23:53:00,48.5,-99.9,29.88,SSE,165,0.0,0.0,1,0.00,,,0.01,WeatherCatV1.21B27,2013-08-13 06:53:00,
2013-08-12 23:58:00,48.3,-99.9,29.88,SSE,165,0.0,0.0,1,0.00,,,0.01,WeatherCatV1.21B27,2013-08-13 06:58:00,